DBC374 ELLX-EDDF

Flight info

Callsign DBC374
Flight time 0h 42m
Altitude 23000
Route ASMOX Y891 LULAT Y890 KULZO T847 IMCOM IMCOM1A
Aircraft SF50/L-BDGRSWY/LB2U2

Departure

Time 2026-05-04 14:55
Airport Luxembourg-Findel International Airport (ELLX)

Arrival

Time 2026-05-04 15:38
Airport Frankfurt Main Airport (EDDF)
Time Latitude Longitude Altitude Speed Heading
2026-05-04 14:21 49.63013 6.21100 1189 ft 0 kts 28°
2026-05-04 14:50 49.63020 6.21106 1189 ft 0 kts 33°
2026-05-04 14:50 49.63010 6.21131 1190 ft 8 kts 131°
2026-05-04 14:50 49.63007 6.21136 1190 ft 0 kts 132°
2026-05-04 14:51 49.62991 6.21163 1190 ft 5 kts 132°
2026-05-04 14:51 49.62989 6.21167 1190 ft 0 kts 132°
2026-05-04 14:51 49.62982 6.21170 1190 ft 1 kts 202°
2026-05-04 14:52 49.62954 6.21163 1190 ft 15 kts 192°
2026-05-04 14:52 49.62871 6.20983 1190 ft 25 kts 245°
2026-05-04 14:52 49.62782 6.20727 1190 ft 30 kts 227°
2026-05-04 14:52 49.62618 6.20501 1191 ft 33 kts 227°
2026-05-04 14:53 49.62525 6.20327 1192 ft 31 kts 230°
2026-05-04 14:53 49.62411 6.20052 1192 ft 31 kts 239°
2026-05-04 14:53 49.62306 6.19765 1192 ft 30 kts 241°
2026-05-04 14:53 49.62190 6.19556 1193 ft 18 kts 171°
2026-05-04 14:54 49.62168 6.19574 1195 ft 0 kts 143°
2026-05-04 14:54 49.62161 6.19580 1195 ft 7 kts 151°
2026-05-04 14:54 49.62101 6.19654 1201 ft 13 kts 108°
2026-05-04 14:54 49.62181 6.19897 1204 ft 54 kts 61°
2026-05-04 14:55 49.62488 6.20724 1230 ft 114 kts 61°
2026-05-04 14:55 49.62880 6.21814 1619 ft 125 kts 60°
2026-05-04 14:55 49.63363 6.23068 2247 ft 145 kts 56°
2026-05-04 14:55 49.63950 6.24478 2986 ft 170 kts 57°
2026-05-04 14:56 49.64586 6.25987 3635 ft 158 kts 56°
2026-05-04 14:56 49.65222 6.27465 4000 ft 182 kts 56°
2026-05-04 14:56 49.65892 6.29302 4009 ft 208 kts 64°
2026-05-04 14:56 49.66544 6.31461 4012 ft 235 kts 65°
2026-05-04 14:57 49.67308 6.33815 4016 ft 253 kts 61°
2026-05-04 14:57 49.68232 6.36183 4012 ft 261 kts 54°
2026-05-04 14:57 49.69629 6.37887 3988 ft 264 kts 21°
2026-05-04 14:57 49.71433 6.38061 3989 ft 263 kts 347°
2026-05-04 14:58 49.73145 6.37052 3990 ft 263 kts 334°
2026-05-04 14:58 49.74818 6.35880 4003 ft 265 kts 337°
2026-05-04 14:58 49.76552 6.34888 3999 ft 265 kts 341°
2026-05-04 14:58 49.78316 6.33996 3996 ft 266 kts 341°
2026-05-04 14:59 49.80067 6.33091 4003 ft 265 kts 340°
2026-05-04 14:59 49.81813 6.32145 4000 ft 264 kts 340°
2026-05-04 14:59 49.85268 6.30284 4015 ft 264 kts 340°
2026-05-04 15:00 49.86984 6.29364 4374 ft 251 kts 340°
2026-05-04 15:00 49.88609 6.28490 4796 ft 248 kts 340°
2026-05-04 15:00 49.90279 6.27598 4798 ft 258 kts 340°
2026-05-04 15:01 49.93575 6.25831 5754 ft 232 kts 340°
2026-05-04 15:01 49.95016 6.25068 6804 ft 205 kts 343°
2026-05-04 15:01 49.96323 6.25274 7827 ft 185 kts 28°
2026-05-04 15:01 49.97364 6.26439 8501 ft 187 kts 37°
2026-05-04 15:02 49.98415 6.27650 9149 ft 189 kts 36°
2026-05-04 15:02 49.99476 6.28869 9808 ft 191 kts 36°
2026-05-04 15:02 50.00545 6.30100 10453 ft 192 kts 38°
2026-05-04 15:02 50.01183 6.31894 11052 ft 195 kts 82°
2026-05-04 15:03 50.01168 6.34014 11646 ft 197 kts 90°
2026-05-04 15:03 50.01262 6.36145 12260 ft 199 kts 83°
2026-05-04 15:03 50.01451 6.38286 12843 ft 201 kts 82°
2026-05-04 15:03 50.01629 6.40455 13420 ft 203 kts 83°
2026-05-04 15:04 50.01803 6.42641 13998 ft 204 kts 83°
2026-05-04 15:04 50.01975 6.44815 14535 ft 206 kts 83°
2026-05-04 15:04 50.02152 6.47041 15070 ft 208 kts 83°
2026-05-04 15:04 50.02331 6.49283 15594 ft 210 kts 83°
2026-05-04 15:05 50.02513 6.51559 16109 ft 212 kts 83°
2026-05-04 15:05 50.02693 6.53843 16601 ft 213 kts 83°
2026-05-04 15:05 50.02874 6.56145 17086 ft 215 kts 83°
2026-05-04 15:05 50.03050 6.58400 16790 ft 213 kts 83°
2026-05-04 15:06 50.03238 6.60796 15532 ft 233 kts 83°
2026-05-04 15:06 50.03444 6.63409 13813 ft 252 kts 83°
2026-05-04 15:06 50.03663 6.66234 11742 ft 277 kts 83°
2026-05-04 15:07 50.04114 6.72056 11003 ft 276 kts 83°
2026-05-04 15:07 50.04338 6.74996 11006 ft 279 kts 83°
2026-05-04 15:07 50.04572 6.78032 11008 ft 282 kts 83°
2026-05-04 15:07 50.04805 6.81076 11010 ft 284 kts 83°
2026-05-04 15:08 50.05038 6.84141 11012 ft 286 kts 83°
2026-05-04 15:08 50.05274 6.87230 11010 ft 288 kts 83°
2026-05-04 15:08 50.05509 6.90325 11012 ft 289 kts 83°
2026-05-04 15:08 50.05742 6.93434 11011 ft 289 kts 83°
2026-05-04 15:09 50.05976 6.96550 11011 ft 290 kts 83°
2026-05-04 15:09 50.06211 6.99647 11010 ft 292 kts 83°
2026-05-04 15:09 50.06445 7.02793 11010 ft 293 kts 83°
2026-05-04 15:10 50.06912 7.09128 11011 ft 295 kts 83°
2026-05-04 15:10 50.07146 7.12293 11011 ft 296 kts 83°
2026-05-04 15:10 50.07617 7.18695 11011 ft 296 kts 83°
2026-05-04 15:11 50.07850 7.21879 11011 ft 296 kts 83°
2026-05-04 15:11 50.08079 7.25020 11010 ft 296 kts 83°
2026-05-04 15:11 50.08309 7.28218 11011 ft 297 kts 83°
2026-05-04 15:11 50.08540 7.31419 11010 ft 298 kts 83°
2026-05-04 15:12 50.08769 7.34622 11011 ft 297 kts 83°
2026-05-04 15:12 50.08997 7.37815 11011 ft 295 kts 83°
2026-05-04 15:12 50.09225 7.40996 11010 ft 297 kts 83°
2026-05-04 15:12 50.09452 7.44199 11011 ft 298 kts 83°
2026-05-04 15:13 50.09678 7.47395 11011 ft 295 kts 84°
2026-05-04 15:13 50.09901 7.50542 11009 ft 296 kts 83°
2026-05-04 15:13 50.10125 7.53733 11010 ft 296 kts 84°
2026-05-04 15:13 50.10346 7.56927 11011 ft 297 kts 84°
2026-05-04 15:14 50.10570 7.60138 11011 ft 298 kts 84°
2026-05-04 15:14 50.10793 7.63352 11011 ft 299 kts 84°
2026-05-04 15:14 50.11013 7.66560 11011 ft 297 kts 84°
2026-05-04 15:14 50.11232 7.69756 11011 ft 296 kts 84°
2026-05-04 15:15 50.11452 7.72944 11011 ft 295 kts 84°
2026-05-04 15:15 50.11668 7.76126 11010 ft 296 kts 84°
2026-05-04 15:15 50.11898 7.79319 11010 ft 296 kts 83°
2026-05-04 15:16 50.12352 7.85263 10993 ft 270 kts 83°
2026-05-04 15:16 50.12574 7.88210 10998 ft 276 kts 83°
2026-05-04 15:16 50.13024 7.94243 11001 ft 282 kts 83°
2026-05-04 15:17 50.13251 7.97301 11003 ft 284 kts 83°
2026-05-04 15:17 50.13705 8.03425 11005 ft 287 kts 83°
2026-05-04 15:17 50.13937 8.06525 11005 ft 288 kts 83°
2026-05-04 15:18 50.14167 8.09630 11006 ft 289 kts 83°
2026-05-04 15:18 50.14399 8.12753 11006 ft 290 kts 83°
2026-05-04 15:18 50.14631 8.15882 11007 ft 290 kts 83°
2026-05-04 15:19 50.15090 8.22151 11007 ft 291 kts 83°
2026-05-04 15:19 50.15321 8.25289 11007 ft 291 kts 83°
2026-05-04 15:19 50.15777 8.31531 11007 ft 292 kts 83°
2026-05-04 15:20 50.16008 8.34680 11008 ft 293 kts 83°
2026-05-04 15:20 50.16166 8.37646 10994 ft 250 kts 93°
2026-05-04 15:20 50.15747 8.40221 10989 ft 248 kts 117°
2026-05-04 15:20 50.14712 8.42354 10996 ft 247 kts 132°
2026-05-04 15:21 50.13541 8.44330 10999 ft 249 kts 133°
2026-05-04 15:21 50.12350 8.46310 11000 ft 250 kts 133°
2026-05-04 15:21 50.09956 8.50280 11001 ft 251 kts 133°
2026-05-04 15:22 50.08757 8.52267 11001 ft 251 kts 133°
2026-05-04 15:22 50.07557 8.54252 11002 ft 252 kts 133°
2026-05-04 15:22 50.05178 8.58190 11026 ft 250 kts 133°
2026-05-04 15:23 50.03977 8.60179 11028 ft 251 kts 133°
2026-05-04 15:23 50.02763 8.62190 10320 ft 258 kts 133°
2026-05-04 15:23 50.01539 8.64215 9148 ft 248 kts 133°
2026-05-04 15:23 50.00417 8.66072 9031 ft 227 kts 133°
2026-05-04 15:24 49.99099 8.70196 9026 ft 224 kts 83°
2026-05-04 15:24 49.99925 8.74943 9037 ft 235 kts 73°
2026-05-04 15:25 50.00389 8.77407 9040 ft 239 kts 73°
2026-05-04 15:25 50.00858 8.79903 9042 ft 241 kts 73°
2026-05-04 15:25 50.01329 8.82406 9042 ft 242 kts 73°
2026-05-04 15:26 50.02275 8.87437 8308 ft 237 kts 73°
2026-05-04 15:26 50.02740 8.89911 6283 ft 249 kts 73°
2026-05-04 15:26 50.03649 8.94764 5033 ft 193 kts 73°
2026-05-04 15:27 50.04015 8.96726 5024 ft 190 kts 73°
2026-05-04 15:27 50.04772 9.00776 5031 ft 198 kts 73°
2026-05-04 15:28 50.05555 9.04933 5032 ft 199 kts 72°
2026-05-04 15:28 50.06377 9.06582 5025 ft 200 kts 30°
2026-05-04 15:28 50.09051 9.06264 5033 ft 198 kts 343°
2026-05-04 15:29 50.10382 9.05680 5032 ft 199 kts 343°
2026-05-04 15:30 50.14513 9.01404 5025 ft 198 kts 260°
2026-05-04 15:30 50.12234 8.96144 5034 ft 197 kts 233°
2026-05-04 15:31 50.10650 8.92652 5029 ft 196 kts 245°
2026-05-04 15:31 50.10497 8.90570 5029 ft 195 kts 273°
2026-05-04 15:32 50.10142 8.84326 4803 ft 206 kts 250°
2026-05-04 15:32 50.09185 8.80347 4033 ft 170 kts 250°
2026-05-04 15:33 50.08455 8.77328 3978 ft 134 kts 250°
2026-05-04 15:34 50.07405 8.73017 2533 ft 124 kts 250°
2026-05-04 15:34 50.07112 8.71814 2133 ft 128 kts 249°
2026-05-04 15:34 50.06516 8.69418 1671 ft 110 kts 250°
2026-05-04 15:35 50.06018 8.67187 1462 ft 112 kts 252°
2026-05-04 15:35 50.05816 8.66191 1406 ft 90 kts 253°
2026-05-04 15:35 50.05608 8.65259 1210 ft 94 kts 249°
2026-05-04 15:36 50.05137 8.63436 903 ft 90 kts 248°
2026-05-04 15:36 50.04890 8.62454 907 ft 103 kts 250°
2026-05-04 15:36 50.04655 8.61402 775 ft 104 kts 251°
2026-05-04 15:37 50.04404 8.60330 635 ft 105 kts 250°
2026-05-04 15:37 50.04173 8.59308 487 ft 93 kts 248°
2026-05-04 15:37 50.04018 8.58717 415 ft 85 kts 249°
2026-05-04 15:37 50.03753 8.57636 363 ft 71 kts 250°
2026-05-04 15:38 50.03657 8.57206 353 ft 46 kts 249°
2026-05-04 15:38 50.03568 8.57199 352 ft 1 kts 116°
2026-05-04 15:38 50.03564 8.57213 352 ft 0 kts 116°
2026-05-04 15:40 50.03539 8.57334 354 ft 18 kts 115°
2026-05-04 15:40 50.03461 8.57442 358 ft 13 kts 167°
2026-05-04 15:40 50.03370 8.57483 358 ft 16 kts 161°
2026-05-04 15:40 50.03275 8.57527 354 ft 11 kts 201°
2026-05-04 15:41 50.03234 8.57494 353 ft 0 kts 206°